This is the latest recevied weather packets stored in our database for station/object WX4SGA. If no packets are shown the sender has not sent any weather packets the latest 10 day(s).
| Time | Temp. | Humidity | Pressure | Rain* | Wind** | Luminosity | Snow |
|---|---|---|---|---|---|---|---|
| 1788381165 | 33.33° C | 57% | 1016.6 hPa | 0 mm | - | 547 W/m² | - |
| 1788380860 | 33.33° C | 54% | 1016.6 hPa | 0 mm | - | 560 W/m² | - |
| 1788380557 | 33.89° C | 56% | 1016.6 hPa | 0 mm | - | 578 W/m² | - |
| 1788380253 | 33.33° C | 55% | 1016.6 hPa | 0 mm | - | 588 W/m² | - |
| 1788379952 | 33.33° C | 54% | 1016.6 hPa | 0 mm | - | 604 W/m² | - |
| 1788379647 | 33.33° C | 54% | 1016.9 hPa | 0 mm | - | 627 W/m² | - |
| 1788379342 | 33.33° C | 57% | 1016.9 hPa | 0 mm | - | 635 W/m² | - |
| 1788379038 | 33.33° C | 56% | 1016.9 hPa | 0 mm | - | 543 W/m² | - |
| 1788378737 | 33.33° C | 58% | 1016.9 hPa | 0 mm | - | 664 W/m² | - |
| 1788378436 | 33.33° C | 56% | 1016.9 hPa | 0 mm | - | 669 W/m² | - |
| 1788378131 | 32.22° C | 58% | 1016.9 hPa | 0 mm | - | 681 W/m² | - |
| 1788377828 | 32.78° C | 60% | 1016.9 hPa | 0 mm | - | 159 W/m² | - |
| 1788377523 | 32.78° C | 57% | 1017.3 hPa | 0 mm | - | 758 W/m² | - |
| 1788377221 | 33.33° C | 56% | 1017.3 hPa | 0 mm | - | 756 W/m² | - |
| 1788376920 | 33.33° C | 59% | 1017.3 hPa | 0 mm | - | 734 W/m² | - |
| 1788376614 | 33.33° C | 55% | 1017.3 hPa | 0 mm | - | 769 W/m² | - |
| 1788376309 | 32.78° C | 56% | 1017.3 hPa | 0 mm | - | 696 W/m² | - |
| 1788376005 | 32.78° C | 61% | 1017.3 hPa | 0 mm | - | 749 W/m² | - |
| 1788375700 | 32.78° C | 61% | 1017.3 hPa | 0 mm | - | 803 W/m² | - |
| 1788375395 | 32.78° C | 58% | 1017.6 hPa | 0 mm | - | 475 W/m² | - |
| 1788375091 | 32.78° C | 57% | 1017.6 hPa | 0 mm | - | 556 W/m² | - |
| 1788374786 | 33.33° C | 57% | 1017.6 hPa | 0 mm | - | 150 W/m² | - |
| 1788374481 | 32.78° C | 59% | 1017.6 hPa | 0 mm | - | 813 W/m² | - |
| 1788374178 | 32.22° C | 61% | 1017.6 hPa | 0 mm | - | 314 W/m² | - |
| 1788373874 | 32.78° C | 60% | 1018 hPa | 0 mm | - | 484 W/m² | - |
* Rain latest hour (hover to see other rain measurements)
** Current wind speed in m/s (hover to see current wind gust speed)